Weather History for KISQ - July, 2013

Change the Weather History Date:

Sunday, July 14, 2013

  Actual Average Record
Temperature  
Mean Temperature 66 °F -  
Max Temperature 76 °F 73 °F 87 °F (2002)
Min Temperature 55 °F 53 °F 39 °F (1967)
Growing Degree Days 16 (Base 50)    
Moisture  
Dew Point 63 °F    
Average Humidity 82    
Maximum Humidity 99    
Minimum Humidity 68    
Precipitation  
Precipitation 0.00 in - - ()
Sea Level Pressure  
Sea Level Pressure 30.22 in    
Wind  
Wind Speed 4 mph (South)    
Max Wind Speed 12 mph    
Max Gust Speed 16 mph    
Visibility 9 miles    
Events Fog    
Averages and records for this station are not official NWS values.
T = Trace of Precipitation, MM = Missing Value Source: NWS Daily Summary

Daily Weather History Graph

Daily Weather History Graph

Search for Another Location

Airport or City:

Trip Planner

Search our weather history database for the weather conditions in past years. The results will help you decide how hot, cold, wet, or windy it might be!

Date:

Astronomy

Jul. 14, 2013 Rise Set
Actual Time 6:08 AM EDT 9:32 PM EDT
Civil Twilight 5:31 AM EDT 10:09 PM EDT
Nautical Twilight 4:42 AM EDT 10:57 PM EDT
Astronomical Twilight 3:39 AM EDT 11:59 PM EDT
Moon 12:48 PM EDT (7/14) No Moon Set
Length of Visible Light 16h 38m
Length of Day
15h 24m
Waxing Crescent, 35% of the Moon is Illuminated
Jul 14
Waxing Crescent
Jul 15
First Quarter
Jul 22
Full
Jul 29
Last Quarter
Aug 6
New

Hourly Weather History & Observations

Time (EDT) Temp. Dew Point Humidity Pressure Visibility Wind Dir Wind Speed Gust Speed Precip Events Conditions
12:15 AM 65.1 °F 61.7 °F 89% 30.18 in 10.0 mi SE 3.5 mph - N/A   Clear
12:35 AM 64.0 °F 61.3 °F 91% 30.18 in 10.0 mi SE 5.8 mph - N/A   Clear
12:55 AM 63.3 °F 61.3 °F 93% 30.18 in 10.0 mi Calm Calm - N/A   Clear
1:14 AM 63.5 °F 61.3 °F 93% 30.19 in 10.0 mi SE 3.5 mph - N/A   Clear
1:35 AM 61.0 °F 59.4 °F 94% 30.19 in 10.0 mi Calm Calm - N/A   Clear
1:55 AM 64.0 °F 61.3 °F 91% 30.20 in 10.0 mi South 3.5 mph - N/A   Clear
2:14 AM 61.5 °F 60.3 °F 96% 30.20 in 10.0 mi Calm Calm - N/A   Clear
2:35 AM 61.0 °F 59.5 °F 95% 30.20 in 10.0 mi Calm Calm - N/A   Clear
2:55 AM 61.5 °F 60.3 °F 96% 30.21 in 10.0 mi South 4.6 mph - N/A   Clear
3:15 AM 63.0 °F 59.9 °F 90% 30.20 in 10.0 mi SSE 4.6 mph - N/A   Clear
3:35 AM 62.8 °F 60.1 °F 91% 30.20 in 10.0 mi South 4.6 mph - N/A   Clear
3:55 AM 61.9 °F 59.5 °F 92% 30.20 in 10.0 mi Calm Calm - N/A   Clear
4:15 AM 63.3 °F 59.9 °F 89% 30.21 in 10.0 mi SW 3.5 mph - N/A   Clear
4:35 AM 61.9 °F 59.7 °F 93% 30.21 in 10.0 mi Calm Calm - N/A   Clear
4:54 AM 59.9 °F 58.8 °F 96% 30.21 in 10.0 mi Calm Calm - N/A   Clear
5:15 AM 57.4 °F 56.5 °F 97% 30.21 in 2.0 mi Calm Calm - N/A   Clear
5:35 AM 55.2 °F 54.9 °F 99% 30.21 in 5.0 mi Calm Calm - N/A   Clear
5:54 AM 55.8 °F 55.4 °F 99% 30.21 in 4.0 mi Calm Calm - N/A   Clear
6:15 AM 55.9 °F 55.8 °F 99% 30.22 in 0.5 mi Calm Calm - N/A Fog Fog
6:35 AM 55.0 °F 54.5 °F 98% 30.22 in 4.0 mi Calm Calm - N/A   Clear
6:54 AM 55.9 °F 55.0 °F 97% 30.22 in 7.0 mi Calm Calm - N/A   Clear
7:15 AM 58.3 °F 57.6 °F 97% 30.23 in 7.0 mi Calm Calm - N/A   Clear
7:35 AM 62.6 °F 60.8 °F 94% 30.23 in 10.0 mi Calm Calm - N/A   Clear
7:55 AM 66.7 °F 62.6 °F 86% 30.23 in 10.0 mi Calm Calm - N/A   Scattered Clouds
8:15 AM 68.4 °F 63.1 °F 83% 30.23 in 10.0 mi Calm Calm - N/A   Mostly Cloudy
8:34 AM 69.4 °F 62.8 °F 79% 30.23 in 10.0 mi SE 3.5 mph - N/A   Scattered Clouds
8:55 AM 70.7 °F 62.8 °F 76% 30.24 in 10.0 mi SSE 4.6 mph - N/A   Clear
9:14 AM 71.6 °F 62.8 °F 74% 30.23 in 10.0 mi SSE 5.8 mph - N/A   Clear
9:35 AM 71.8 °F 62.2 °F 72% 30.23 in 10.0 mi South 5.8 mph - N/A   Clear
9:55 AM 72.3 °F 62.1 °F 70% 30.24 in 10.0 mi South 5.8 mph - N/A   Clear
10:14 AM 72.3 °F 62.2 °F 70% 30.24 in 10.0 mi South 6.9 mph - N/A   Clear
10:35 AM 72.7 °F 62.2 °F 70% 30.24 in 10.0 mi South 6.9 mph - N/A   Clear
10:55 AM 72.3 °F 62.6 °F 71% 30.24 in 10.0 mi SSW 6.9 mph - N/A   Clear
11:14 AM 72.9 °F 63.0 °F 71% 30.25 in 10.0 mi South 6.9 mph - N/A   Clear
11:35 AM 73.2 °F 63.5 °F 71% 30.25 in 10.0 mi South 9.2 mph - N/A   Clear
11:55 AM 73.6 °F 63.7 °F 71% 30.25 in 10.0 mi South 8.1 mph - N/A   Clear
12:15 PM 73.6 °F 64.0 °F 72% 30.25 in 10.0 mi South 5.8 mph - N/A   Clear
12:35 PM 74.1 °F 64.4 °F 72% 30.25 in 10.0 mi South 5.8 mph - N/A   Clear
12:54 PM 75.0 °F 64.9 °F 71% 30.26 in 10.0 mi South 6.9 mph - N/A   Clear
1:15 PM 74.5 °F 64.9 °F 72% 30.26 in 10.0 mi South 9.2 mph - N/A   Clear
1:34 PM 74.7 °F 64.8 °F 71% 30.25 in 10.0 mi South 4.6 mph - N/A   Clear
1:55 PM 75.7 °F 64.6 °F 68% 30.24 in 10.0 mi SSE 11.5 mph - N/A   Clear
2:15 PM 75.4 °F 65.1 °F 70% 30.24 in 10.0 mi South 11.5 mph - N/A   Clear
2:34 PM 76.6 °F 65.8 °F 69% 30.24 in 10.0 mi South 10.4 mph - N/A   Clear
2:55 PM 76.1 °F 65.7 °F 70% 30.24 in 10.0 mi SSW 10.4 mph - N/A   Clear
3:14 PM 75.7 °F 65.8 °F 71% 30.24 in 10.0 mi SSW 8.1 mph - N/A   Clear
3:35 PM 76.1 °F 66.0 °F 71% 30.24 in 10.0 mi South 10.4 mph - N/A   Clear
3:55 PM 74.7 °F 65.8 °F 74% 30.24 in 10.0 mi South 9.2 mph 16.1 mph N/A   Clear
4:14 PM 75.0 °F 65.5 °F 72% 30.24 in 10.0 mi SSW 9.2 mph - N/A   Clear
4:35 PM 75.7 °F 65.7 °F 71% 30.24 in 10.0 mi SSW 6.9 mph - N/A   Clear
4:55 PM 74.8 °F 65.5 °F 73% 30.24 in 10.0 mi South 8.1 mph - N/A   Clear
5:14 PM 75.0 °F 65.5 °F 72% 30.23 in 10.0 mi SSW 6.9 mph - N/A   Clear
5:35 PM 74.5 °F 65.5 °F 73% 30.23 in 10.0 mi SSW 8.1 mph - N/A   Clear
5:55 PM 75.0 °F 65.1 °F 71% 30.23 in 10.0 mi South 9.2 mph - N/A   Clear
6:15 PM 75.2 °F 65.1 °F 71% 30.22 in 10.0 mi South 6.9 mph - N/A   Clear
6:35 PM 75.4 °F 65.1 °F 70% 30.23 in 10.0 mi SSW 6.9 mph - N/A   Clear
6:54 PM 75.2 °F 65.1 °F 71% 30.22 in 10.0 mi SSW 8.1 mph - N/A   Clear
7:15 PM 74.8 °F 64.9 °F 71% 30.22 in 10.0 mi SSW 10.4 mph - N/A   Clear
7:35 PM 73.6 °F 65.7 °F 76% 30.22 in 10.0 mi South 5.8 mph - N/A   Clear
7:54 PM 73.4 °F 65.5 °F 76% 30.22 in 10.0 mi South 6.9 mph - N/A   Clear
8:15 PM 72.7 °F 65.5 °F 78% 30.22 in 10.0 mi South 4.6 mph - N/A   Clear
8:35 PM 71.8 °F 65.3 °F 80% 30.22 in 10.0 mi South 6.9 mph - N/A   Clear
8:54 PM 70.9 °F 65.3 °F 82% 30.22 in 10.0 mi South 5.8 mph - N/A   Clear
9:15 PM 69.6 °F 64.9 °F 85% 30.22 in 10.0 mi South 5.8 mph - N/A   Clear
9:34 PM 68.4 °F 64.8 °F 88% 30.21 in 10.0 mi South 5.8 mph - N/A   Clear
9:55 PM 67.3 °F 64.8 °F 92% 30.22 in 10.0 mi South 4.6 mph - N/A   Clear
10:15 PM 66.7 °F 64.4 °F 92% 30.23 in 10.0 mi South 3.5 mph - N/A   Clear
10:34 PM 66.4 °F 64.4 °F 93% 30.23 in 10.0 mi South 4.6 mph - N/A   Clear
10:55 PM 67.1 °F 64.4 °F 91% 30.23 in 10.0 mi SSW 3.5 mph - N/A   Clear
11:15 PM 66.2 °F 64.0 °F 93% 30.23 in 10.0 mi SSW 3.5 mph - N/A   Clear
11:34 PM 65.5 °F 63.7 °F 94% 30.23 in 10.0 mi SSW 3.5 mph - N/A   Clear
11:55 PM 65.1 °F 63.5 °F 94% 30.23 in 10.0 mi South 3.5 mph - N/A   Clear